Find Kuiper-00021

NORAD ID: 63736 Int'l Des: 2025-088 Owner: KUIP Country: US Constellation: kuiper operational
LEOCIRCULAR

Live Position

Loading 3D Globe...

About Kuiper-00021

Description loading...

Upcoming Passes

Passes for default location (London). Set your location on the main map for personalized predictions.

Altitude History

Loading altitude history...

Two-Line Element Set

1 63736U 25088N 26106.79225067 .00002298 00000-0 30455-3 0 9992
2 63736 51.9012 294.7695 0002898 183.4253 176.6691 14.83449715 53134
Epoch: Apr 16, 2026 • Age: 11 hours

Current Status

Altitude 633.6 km
Velocity 7.54 km/s
Sub-Earth Point -42.99°S, 50.25°W
Launch Date Apr 28, 2025
Age 0.9 years
Type internet

Technical Details

Classification Payload
Mass 490.00 kg
Dry Mass 490.00 kg
Total Mass 490.00 kg
Length 1.80 m
Diameter 0.70 m
Span 5.00 m
Shape Box + 2 pan
Manufacturer KUIP
Bus Type Kuiper
Phase Status In Orbit
Owner/State KUIP/US

Most Searched